CW7804 Weather Reports


Display with metric or nautical units.
time (UTC)temp
F
wind
direction
speed
MPH
gust
MPH
rain 1hr
in
rain 24hr
in
rain mn
in
humidity
%
barometer
mb
20191121100031 33 355 0.0 0.0 0.00 0.00 0.00 89 1024.3
20191121093146 33 355 0.0 0.0 0.00 0.00 0.00 88 1024.3
20191121091542 33 355 0.0 0.0 0.00 0.00 0.00 88 1024.2
20191121084542 33 355 0.0 0.0 0.00 0.00 0.00 88 1024.3
20191121083023 33 355 0.0 0.0 0.00 0.00 0.00 88 1024.2
20191121081638 33 355 0.0 0.0 0.00 0.00 0.00 87 1024.2
20191121080040 34 355 0.0 0.0 0.00 0.00 0.00 88 1024.3
20191121073202 34 355 0.0 0.0 0.00 0.00 0.00 88 1024.4
20191121070143 35 355 0.0 0.0 0.00 0.00 0.00 86 1024.3
20191121064557 35 355 0.0 0.0 0.00 0.00 0.00 87 1024.4
20191121061603 35 355 0.0 0.0 0.00 0.00 0.00 88 1024.4
20191121054708 35 355 0.0 0.0 0.00 0.00 0.00 87 1024.4
20191121053102 35 355 0.0 0.0 0.00 0.00 0.00 86 1024.5
20191121051527 36 355 0.0 0.0 0.00 0.00 0.00 86 1024.2
20191121050217 36 355 0.0 0.0 0.00 0.00 0.00 86 1024.0
20191121044553 37 355 0.0 0.0 0.00 0.00 0.00 86 1024.1
20191121043106 37 355 0.0 0.0 0.00 0.00 0.00 85 1024.1
20191121040055 37 355 0.0 0.0 0.00 0.00 0.00 85 1024.0
20191121033014 38 355 0.0 0.0 0.00 0.02 0.00 84 1023.5
20191121030052 39 355 0.0 0.0 0.00 0.02 0.00 84 1023.8
20191121023135 40 355 0.0 0.0 0.00 0.03 0.00 83 1023.6
20191121021515 40 355 0.0 0.0 0.00 0.03 0.00 83 1023.4
20191121014605 41 355 0.0 0.0 0.00 0.03 0.00 81 1023.3
20191121013058 42 355 0.0 0.0 0.00 0.03 0.00 79 1023.3
20191121010132 43 355 0.0 0.0 0.00 0.03 0.00 78 1023.0
20191121001605 44 355 0.0 0.0 0.00 0.03 0.00 76 1022.2
20191120234630 46 355 0.0 0.0 0.00 0.03 0.00 74 1021.9
20191120233102 47 355 0.0 0.0 0.00 0.03 0.00 68 1021.6
20191120230126 50 355 0.0 0.0 0.00 0.03 0.00 64 1021.1
20191120224550 52 355 0.0 0.0 0.00 0.03 0.00 59 1021.0
20191120220109 56 355 0.0 0.0 0.00 0.03 0.00 46 1020.5
20191120213059 57 355 1.0 4.0 0.00 0.03 0.00 47 1020.6
20191120211535 57 346 1.0 6.0 0.00 0.03 0.00 45 1020.3
20191120204618 57 360 1.0 6.0 0.00 0.03 0.00 45 1020.1
20191120200116 58 13 3.0 8.0 0.00 0.03 0.00 44 1019.8
20191120194507 58 327 1.0 4.0 0.00 0.03 0.00 45 1019.7
20191120193113 58 348 1.0 5.0 0.00 0.03 0.00 45 1019.6
20191120191623 58 350 2.0 9.0 0.00 0.03 0.00 45 1019.6
20191120190019 58 343 5.0 12.0 0.00 0.03 0.00 45 1019.7
20191120184718 58 355 1.0 10.0 0.00 0.03 0.00 44 1019.8
20191120183027 58 5 5.0 11.0 0.00 0.03 0.00 45 1019.7
20191120180151 58 341 4.0 11.0 0.00 0.03 0.00 45 1019.9
20191120173200 58 28 4.0 10.0 0.00 0.03 0.00 47 1020.1
20191120170059 58 309 1.0 11.0 0.00 0.03 0.00 54 1020.4
20191120161756 55 17 3.0 6.0 0.00 0.03 0.00 55 1020.7
20191120160052 55 46 3.0 11.0 0.00 0.03 0.00 59 1020.8
20191120153047 53 19 1.0 9.0 0.00 0.03 0.00 61 1020.4
20191120151639 52 340 3.0 10.0 0.00 0.03 0.00 67 1020.0
20191120150012 51 5 4.0 9.0 0.00 0.03 0.00 69 1020.1
20191120144635 49 26 0.0 4.0 0.00 0.03 0.00 76 1019.8
20191120143015 48 348 1.0 3.0 0.00 0.03 0.00 76 1019.6
20191120141520 46 5 1.0 3.0 0.00 0.03 0.00 80 1019.3
20191120134536 42 283 0.0 0.0 0.00 0.03 0.00 91 1019.1
20191120130115 38 283 0.0 0.0 0.00 0.03 0.00 90 1018.6
20191120123249 38 283 0.0 0.0 0.00 0.03 0.00 88 1018.2
20191120121634 39 283 0.0 0.0 0.00 0.03 0.00 87 1017.5
20191120120023 39 283 0.0 0.0 0.00 0.03 0.00 87 1017.2
20191120113057 40 283 0.0 0.0 0.00 0.03 0.00 86 1016.7
20191120110257 41 283 0.0 0.0 0.00 0.03 0.00 85 1016.2
20191120104526 41 283 0.0 0.0 0.00 0.03 0.00 86 1016.0